Home   Weather   Township of Fairfield   Past weeks
Flag for USA

Past Weather in Township of Fairfield, Ohio, USA — Yesterday and Last 2 Weeks

Now
37 °F

Passing clouds.


Feels Like: 32 °F
Forecast: 44 / 29 °F
Wind: 6 mph from Southeast

Location: John Glenn Columbus International Airport

Current Time: Dec 5, 2019 at 10:14:13 pm

Latest Report: Dec 5, 2019 at 8:51 pm


Visibility: 10 mi

Pressure: 30.10 "Hg

Humidity: 62%

Dew Point: 25 °F

Location of Township of FairfieldLocation

Past Weather in Township of Fairfield — Graph

°F

Township of Fairfield Temperature Yesterday

Maximum temperature yesterday: 46 °F (at 1:51 pm)
Minimum temperature yesterday: 31 °F (at 12:51 am)
Average temperature yesterday: 38 °F

High & Low Weather Summary for the Past Weeks

 TemperatureHumidityPressure
High57 °F (Nov 26, 12:51 pm)97% (Dec 1, 5:51 am)30.47 "Hg (Dec 1, 5:51 am)
Low26 °F (Nov 23, 2:51 am)43% (Dec 5, 12:51 pm)29.36 "Hg (Dec 1, 12:51 pm)
Average40 °F75%29.89 "Hg
* Reported Nov 20 8:51 pm — Dec 5 8:51 pm, Township of Fairfield. Weather by CustomWeather, © 2019

Note: Actual official high and low records may vary slightly from our data, if they occured in-between our weather recording intervals... More about our weather records

Township of Fairfield Weather History for the Previous 24 Hours

Scroll right to see more
 ConditionsComfort  
Time TempWeatherWind HumidityBarometerVisibility
8:51 pm
Thu, Dec 5
37 °FPassing clouds.6 mph62%30.10 "Hg10 mi
7:51 pm38 °FPassing clouds.3 mph58%30.11 "Hg10 mi
6:51 pm40 °FPartly cloudy.3 mph53%30.10 "Hg10 mi
5:51 pm41 °FPassing clouds.5 mph51%30.10 "Hg10 mi
4:51 pm43 °FPartly sunny.8 mph45%30.10 "Hg10 mi
3:51 pm44 °FSunny.6 mph43%30.09 "Hg10 mi
2:51 pm44 °FSunny.6 mph43%30.09 "Hg10 mi
1:51 pm44 °FSunny.12 mph43%30.09 "Hg10 mi
12:51 pm44 °FPassing clouds.9 mph43%30.09 "Hg10 mi
11:51 am42 °FPassing clouds.12 mph47%30.10 "Hg10 mi
10:51 am40 °FPassing clouds.14 mph53%30.11 "Hg10 mi
9:51 am37 °FSunny.10 mph60%30.09 "Hg10 mi
8:51 am34 °FSunny.8 mph67%30.06 "Hg10 mi
7:51 am31 °FSunny.8 mph73%30.04 "Hg10 mi
6:51 am31 °FClear.7 mph73%30.02 "Hg10 mi
5:51 am32 °FPassing clouds.9 mph69%29.99 "Hg10 mi
4:51 am31 °FPassing clouds.9 mph69%29.96 "Hg10 mi
3:51 am35 °FOvercast.10 mph59%29.95 "Hg10 mi
2:51 am36 °FPassing clouds.14 mph57%29.91 "Hg10 mi
1:51 am37 °FOvercast.10 mph65%29.88 "Hg10 mi
12:51 am37 °FMostly cloudy.16 mph65%29.85 "Hg10 mi
11:51 pm
Wed, Dec 4
38 °FOvercast.15 mph60%29.84 "Hg10 mi
10:51 pm39 °FOvercast.18 mph55%29.81 "Hg10 mi
Weather by CustomWeather, © 2019

See weather overview

Advertising